Starlink 33849

operational
NORAD ID: 63654 Int'l Des: 2025-083 Owner: SPXS Country: US Constellation: starlink
LEOCIRCULAR

About Starlink 33849

Description loading...

Live Position

Loading 3D Globe...

Upcoming Passes

Altitude History

Altitude vs Time

uPlot chart will show altitude changes over time

Two-Line Element Set

1 63654U 25083W 25306.44003029 .00026790 00000-0 97927-3 0 9991
2 63654 43.0007 4.0238 0000941 239.9640 120.1118 15.27588158 30607
Epoch: Nov 2, 2025 • Age: 34 hours

Current Status

Altitude 495.5 km
Velocity 7.62 km/s
Sub-Earth Point -43.09°S, 83.82°W
Launch Date Apr 25, 2025
Age 0.5 years
Type internet

Technical Details

Classification Payload
Mass 575.00 kg
Dry Mass 530.00 kg
Total Mass 575.00 kg
Length 0.30 m
Diameter 4.10 m
Span 29.00 m
Shape Box + pan
Manufacturer SPXS
Bus Type Starlink V2MO
Phase Status In Orbit
Owner/State SPXS/US

Large Constellations

Loading constellations...